一网星座-0674星 (ONEWEB-0674)

导读

ONEWEB-0674是英国OneWeb公司低轨卫星互联网星座中的一颗卫星,于2023年3月9日成功发射入轨。OneWeb星座旨在全球范围内提供宽带互联网接入服务,尤其是为偏远和基础设施薄弱地区覆盖网络。该卫星运行于近地轨道,使用Ku波段提供用户通信服务,作为OneWeb大规模组网的组成部分,助力全球无缝覆盖的卫星通信网络构建,推动全球互联基础设施建设。

基本信息
目录编号:
55833
目录名称:
ONEWEB-0674
国际标识:
2023-029AP
轨道中心:
EARTH
卫星名称:
一网星座-0674星
卫星全名:
一网星座-0674星 (ONEWEB-0674)
卫星状态:
在轨 (已飞行1283 天)
发射日期:
2023-03-09 UTC
国别 :
英国 (GB)
星等 :
--
该卫星已列入 空间交会检测服务 Space Conjunction Data Service (SCDS) ,当前飞行风险评估等级: 无高风险
轨道信息
数据来源 国际轨道数据 AOE轨道数据
星历时间 2026-09-11T19:55:52+0800
15小时前
查看轨道信息
2026-09-10T22:00:00+0800
1天前
查看轨道信息
半长轴 7583.933km 7583.933km
偏心率 0.0002316 0.0002186
轨道倾角 87.889° 87.888°
近地点辐角 95.719° 78.010°
升交点赤经 272.501° 272.684°
平近点角 264.420° 280.319°
近地点 1204.039km 1204.138km
远地点 1207.553km 1207.454km
周期 109.547分钟 109.547分钟
每日圈数 13.145014 13.145014
详细信息
平衡模式:
三轴稳定
覆盖范围:
全球
运营商:
一网卫星公司
运营商所在国:
英国
制造商(研发单位):
一网卫星公司
制造商所在国:
英国
使用方式:
暂无
卫星简介
OneWeb卫星网络由648颗重约125公斤的微型卫星组成,运行在1200公里的轨道上。 每颗卫星都能够提供至少每秒8千兆位的吞吐量,以使用其高吞吐量的Ku频段有效载荷为家庭和移动平台提供互联网接入。该卫星仍在工作。
2D轨道图
3D轨道图
轨道高度分析图
轨道倾角分析图
轨道综合分析图
查看轨道综合分析图
与全量物体交会距离演化趋势
与全量物体交会风险概率演化趋势